| time (UTC) | temp F | wind direction | speed knots | gust knots | rain 1hr in | rain 24hr in | rain mn in | humidity % | barometer mb |
| 20260903141521 | 76 | 12 | 4.3 | 8.7 | 0.00 | 0.00 | 0.00 | 66 | 1012.5 |
| 20260903140749 | 76 | 353 | 5.2 | 13.0 | 0.00 | 0.00 | 0.00 | 65 | 1012.7 |
| 20260903140221 | 76 | 352 | 4.3 | 13.0 | 0.00 | 0.00 | 0.00 | 64 | 1012.8 |
| 20260903135715 | 76 | 273 | 4.3 | 10.4 | 0.00 | 0.00 | 0.00 | 64 | 1012.8 |
| 20260903135149 | 75 | 337 | 4.3 | 10.4 | 0.00 | 0.00 | 0.00 | 65 | 1012.8 |
| 20260903134645 | 75 | 22 | 4.3 | 8.7 | 0.00 | 0.00 | 0.00 | 64 | 1012.9 |
| 20260903134114 | 75 | 35 | 3.5 | 9.6 | 0.00 | 0.00 | 0.00 | 65 | 1012.8 |
| 20260903133613 | 74 | 42 | 4.3 | 12.2 | 0.00 | 0.00 | 0.00 | 65 | 1013.1 |
| 20260903133333 | 74 | 347 | 4.3 | 12.2 | 0.00 | 0.00 | 0.00 | 65 | 1012.9 |
| 20260903132601 | 74 | 280 | 5.2 | 12.2 | 0.00 | 0.00 | 0.00 | 67 | 1013.0 |
| 20260903132033 | 73 | 334 | 4.3 | 12.2 | 0.00 | 0.00 | 0.00 | 66 | 1013.1 |
| 20260903131507 | 73 | 3 | 4.3 | 8.7 | 0.00 | 0.00 | 0.00 | 67 | 1013.2 |
| 20260903131231 | 73 | 33 | 4.3 | 12.2 | 0.00 | 0.00 | 0.00 | 67 | 1013.3 |
| 20260903130458 | 72 | 44 | 5.2 | 12.2 | 0.00 | 0.00 | 0.00 | 68 | 1013.5 |
| 20260903125942 | 71 | 334 | 3.5 | 8.7 | 0.00 | 0.00 | 0.00 | 70 | 1013.5 |
| 20260903125438 | 71 | 266 | 3.5 | 7.8 | 0.00 | 0.00 | 0.00 | 72 | 1013.7 |
| 20260903124939 | 71 | 299 | 4.3 | 7.8 | 0.00 | 0.00 | 0.00 | 71 | 1013.9 |
| 20260903124413 | 70 | 348 | 3.5 | 7.8 | 0.00 | 0.00 | 0.00 | 72 | 1013.8 |
| 20260903123848 | 69 | 322 | 2.6 | 7.0 | 0.00 | 0.00 | 0.00 | 72 | 1013.8 |
| 20260903123321 | 69 | 351 | 2.6 | 7.0 | 0.00 | 0.00 | 0.00 | 76 | 1013.9 |
| 20260903122817 | 68 | 301 | 1.7 | 6.1 | 0.00 | 0.00 | 0.00 | 77 | 1013.9 |
| 20260903122754 | 67 | 314 | 2.6 | 6.1 | 0.00 | 0.00 | 0.00 | 77 | 1014.0 |
| 20260903121750 | 67 | 260 | 2.6 | 7.0 | 0.00 | 0.00 | 0.00 | 78 | 1014.0 |
| 20260903121249 | 66 | 260 | 3.5 | 7.0 | 0.00 | 0.00 | 0.00 | 79 | 1014.0 |
| 20260903120749 | 66 | 291 | 3.5 | 7.0 | 0.00 | 0.00 | 0.00 | 78 | 1014.1 |
| 20260903120250 | 65 | 291 | 3.5 | 7.0 | 0.00 | 0.00 | 0.00 | 79 | 1014.0 |
| 20260903115746 | 65 | 292 | 3.5 | 7.0 | 0.00 | 0.00 | 0.00 | 81 | 1014.1 |
| 20260903115242 | 64 | 283 | 3.5 | 7.0 | 0.00 | 0.00 | 0.00 | 81 | 1014.1 |
| 20260903114715 | 64 | 294 | 4.3 | 8.7 | 0.00 | 0.00 | 0.00 | 81 | 1014.1 |
| 20260903114150 | 63 | 297 | 4.3 | 8.7 | 0.00 | 0.00 | 0.00 | 81 | 1014.2 |
| 20260903113621 | 63 | 299 | 4.3 | 8.7 | 0.00 | 0.00 | 0.00 | 81 | 1014.1 |
| 20260903113120 | 62 | 318 | 2.6 | 7.8 | 0.00 | 0.00 | 0.00 | 83 | 1014.2 |
| 20260903112608 | 62 | 328 | 2.6 | 7.8 | 0.00 | 0.00 | 0.00 | 83 | 1014.0 |
| 20260903112043 | 61 | 288 | 3.5 | 8.7 | 0.00 | 0.00 | 0.00 | 84 | 1014.1 |
| 20260903111527 | 61 | 304 | 2.6 | 8.7 | 0.00 | 0.00 | 0.00 | 84 | 1014.1 |
| 20260903111028 | 60 | 312 | 2.6 | 8.7 | 0.00 | 0.00 | 0.00 | 85 | 1014.0 |
| 20260903110523 | 60 | 342 | 2.6 | 7.0 | 0.00 | 0.00 | 0.00 | 86 | 1014.1 |
| 20260903110018 | 59 | 292 | 3.5 | 6.1 | 0.00 | 0.00 | 0.00 | 87 | 1014.0 |
| 20260903105514 | 59 | 274 | 4.3 | 8.7 | 0.00 | 0.00 | 0.00 | 87 | 1013.9 |
| 20260903105010 | 59 | 278 | 4.3 | 8.7 | 0.00 | 0.00 | 0.00 | 88 | 1014.0 |
| 20260903104511 | 58 | 262 | 3.5 | 7.0 | 0.00 | 0.00 | 0.00 | 89 | 1013.8 |
| 20260903104007 | 58 | 263 | 2.6 | 6.1 | 0.00 | 0.00 | 0.00 | 91 | 1013.7 |
| 20260903103508 | 57 | 262 | 0.9 | 5.2 | 0.00 | 0.00 | 0.00 | 93 | 1013.6 |
| 20260903103010 | 57 | 45 | 0.0 | 3.5 | 0.00 | 0.00 | 0.00 | 93 | 1013.4 |
| 20260903102453 | 56 | 270 | 0.0 | 2.6 | 0.00 | 0.00 | 0.00 | 93 | 1013.1 |
| 20260903102225 | 56 | 12 | 0.0 | 2.6 | 0.00 | 0.00 | 0.00 | 91 | 1013.0 |
| 20260903101426 | 56 | 135 | 0.0 | 2.6 | 0.00 | 0.00 | 0.00 | 91 | 1013.1 |
| 20260903100901 | 56 | 297 | 0.0 | 1.7 | 0.00 | 0.00 | 0.00 | 90 | 1013.1 |
| 20260903100335 | 56 | 293 | 0.0 | 1.7 | 0.00 | 0.00 | 0.00 | 89 | 1013.0 |
| 20260903095831 | 57 | 291 | 0.9 | 6.1 | 0.00 | 0.00 | 0.00 | 88 | 1012.9 |
| 20260903095329 | 57 | 297 | 1.7 | 6.1 | 0.00 | 0.00 | 0.00 | 87 | 1012.9 |
| 20260903094824 | 57 | 321 | 3.5 | 7.0 | 0.00 | 0.00 | 0.00 | 87 | 1012.8 |
| 20260903094314 | 58 | 289 | 5.2 | 8.7 | 0.00 | 0.00 | 0.00 | 87 | 1012.8 |
| 20260903093810 | 58 | 301 | 6.1 | 12.2 | 0.00 | 0.00 | 0.00 | 87 | 1012.5 |
| 20260903093246 | 57 | 293 | 7.0 | 12.2 | 0.00 | 0.00 | 0.00 | 88 | 1012.3 |
| 20260903092717 | 57 | 274 | 7.0 | 9.6 | 0.00 | 0.00 | 0.00 | 90 | 1012.1 |
| 20260903092204 | 56 | 258 | 7.0 | 11.3 | 0.00 | 0.00 | 0.00 | 92 | 1011.9 |
| 20260903091701 | 56 | 241 | 7.0 | 11.3 | 0.00 | 0.00 | 0.00 | 95 | 1011.6 |
| 20260903091149 | 55 | 241 | 5.2 | 11.3 | 0.00 | 0.00 | 0.00 | 99 | 1011.3 |
| 20260903090651 | 54 | 252 | 2.6 | 8.7 | 0.00 | 0.00 | 0.00 | 99 | 1010.6 |
| 20260903090125 | 53 | 299 | 2.6 | 6.1 | 0.00 | 0.00 | 0.00 | 99 | 1010.2 |
| 20260903085611 | 52 | 228 | 3.5 | 7.8 | 0.00 | 0.00 | 0.00 | 99 | 1009.9 |
| 20260903085114 | 51 | 252 | 3.5 | 7.8 | 0.00 | 0.00 | 0.00 | 99 | 1009.8 |
| 20260903084823 | 51 | 177 | 2.6 | 7.8 | 0.00 | 0.00 | 0.00 | 99 | 1009.4 |
| 20260903084052 | 51 | 139 | 1.7 | 5.2 | 0.00 | 0.00 | 0.00 | 99 | 1008.9 |
| 20260903083822 | 51 | 177 | 2.6 | 7.8 | 0.00 | 0.00 | 0.00 | 98 | 1008.8 |
| 20260903083053 | 50 | 62 | 1.7 | 7.8 | 0.00 | 0.00 | 0.00 | 98 | 1008.7 |
| 20260903082754 | 51 | 118 | 0.9 | 2.6 | 0.00 | 0.00 | 0.00 | 98 | 1008.8 |
| 20260903082021 | 51 | 51 | 2.6 | 7.0 | 0.00 | 0.00 | 0.00 | 99 | 1008.7 |
| 20260903081453 | 51 | 154 | 2.6 | 7.0 | 0.00 | 0.00 | 0.00 | 99 | 1008.6 |
| 20260903080926 | 50 | 126 | 1.7 | 4.3 | 0.00 | 0.00 | 0.00 | 99 | 1008.7 |
| 20260903080419 | 49 | 230 | 1.7 | 4.3 | 0.00 | 0.00 | 0.00 | 99 | 1008.8 |
| 20260903075913 | 49 | 141 | 0.9 | 3.5 | 0.00 | 0.00 | 0.00 | 98 | 1008.8 |
| 20260903075412 | 48 | 23 | 1.7 | 3.5 | 0.00 | 0.00 | 0.00 | 98 | 1008.9 |
| 20260903074844 | 48 | 292 | 0.9 | 3.5 | 0.00 | 0.00 | 0.00 | 98 | 1008.9 |
| 20260903074316 | 48 | 329 | 0.9 | 2.6 | 0.00 | 0.00 | 0.00 | 98 | 1009.0 |
| 20260903073753 | 48 | 237 | 1.7 | 3.5 | 0.00 | 0.00 | 0.00 | 98 | 1009.0 |
| 20260903073525 | 48 | 18 | 1.7 | 3.5 | 0.00 | 0.00 | 0.00 | 98 | 1009.0 |
| 20260903072754 | 47 | 337 | 1.7 | 5.2 | 0.00 | 0.00 | 0.00 | 98 | 1009.3 |
| 20260903072254 | 47 | 63 | 0.9 | 5.2 | 0.00 | 0.00 | 0.00 | 98 | 1009.4 |
| 20260903071725 | 47 | 147 | 0.9 | 3.5 | 0.00 | 0.00 | 0.00 | 98 | 1009.4 |
| 20260903071501 | 46 | 357 | 0.0 | 1.7 | 0.00 | 0.00 | 0.00 | 98 | 1009.8 |
| 20260903071221 | 46 | 300 | 0.0 | 1.7 | 0.00 | 0.00 | 0.00 | 98 | 1009.6 |
| 20260903070213 | 46 | 22 | 0.9 | 3.5 | 0.00 | 0.00 | 0.00 | 98 | 1009.8 |
| 20260903065710 | 46 | 226 | 0.9 | 3.5 | 0.00 | 0.00 | 0.00 | 98 | 1009.7 |
| 20260903065204 | 46 | 198 | 0.9 | 2.6 | 0.00 | 0.00 | 0.00 | 97 | 1009.8 |
| 20260903064908 | 46 | 47 | 0.0 | 0.9 | 0.00 | 0.00 | 0.00 | 97 | 1009.8 |
| 20260903064113 | 46 | 42 | 0.0 | 1.7 | 0.00 | 0.00 | 0.00 | 97 | 1010.1 |
| 20260903063611 | 46 | 228 | 0.0 | 1.7 | 0.00 | 0.00 | 0.00 | 97 | 1010.1 |
| 20260903063111 | 46 | 285 | 0.9 | 3.5 | 0.00 | 0.00 | 0.00 | 97 | 1010.2 |
| 20260903062841 | 46 | 79 | 0.9 | 3.5 | 0.00 | 0.00 | 0.00 | 97 | 1010.4 |
| 20260903062108 | 46 | 236 | 0.0 | 1.7 | 0.00 | 0.00 | 0.00 | 97 | 1010.4 |
| 20260903061605 | 46 | 308 | 0.0 | 1.7 | 0.00 | 0.00 | 0.00 | 97 | 1010.4 |
| 20260903061337 | 46 | 70 | 0.0 | 1.7 | 0.00 | 0.00 | 0.00 | 97 | 1010.6 |
| 20260903060536 | 47 | 142 | 0.0 | 1.7 | 0.00 | 0.00 | 0.00 | 97 | 1010.7 |
| 20260903060011 | 47 | 22 | 0.0 | 1.7 | 0.00 | 0.00 | 0.00 | 97 | 1010.8 |
| 20260903055718 | 47 | 302 | 0.0 | 0.9 | 0.00 | 0.00 | 0.00 | 97 | 1011.0 |
| 20260903054919 | 46 | 302 | 0.0 | 0.9 | 0.00 | 0.00 | 0.00 | 97 | 1010.9 |
| 20260903054409 | 46 | 302 | 0.0 | 0.9 | 0.00 | 0.00 | 0.00 | 97 | 1010.9 |
| 20260903054138 | 46 | 318 | 0.0 | 1.7 | 0.00 | 0.00 | 0.00 | 97 | 1011.1 |
| 20260903053408 | 46 | 237 | 0.0 | 1.7 | 0.00 | 0.00 | 0.00 | 97 | 1011.2 |
| 20260903052838 | 46 | 325 | 0.0 | 0.0 | 0.00 | 0.00 | 0.00 | 97 | 1011.4 |
| 20260903052311 | 47 | 325 | 0.0 | 0.9 | 0.00 | 0.00 | 0.00 | 97 | 1011.6 |
| 20260903051750 | 47 | 307 | 0.0 | 0.9 | 0.00 | 0.00 | 0.00 | 97 | 1011.6 |
| 20260903051741 | 47 | 298 | 0.0 | 0.0 | 0.00 | 0.00 | 0.00 | 97 | 1011.6 |
| 20260903050736 | 47 | 302 | 0.0 | 0.0 | 0.00 | 0.00 | 0.00 | 97 | 1011.7 |
| 20260903050235 | 47 | 302 | 0.0 | 0.0 | 0.00 | 0.00 | 0.00 | 97 | 1011.9 |
| 20260903045728 | 47 | 302 | 0.0 | 0.0 | 0.00 | 0.00 | 0.00 | 97 | 1012.0 |
| 20260903045227 | 47 | 302 | 0.0 | 0.9 | 0.00 | 0.00 | 0.00 | 97 | 1012.0 |
| 20260903044723 | 47 | 302 | 0.0 | 0.9 | 0.00 | 0.00 | 0.00 | 97 | 1012.2 |
| 20260903044431 | 47 | 302 | 0.0 | 0.9 | 0.00 | 0.00 | 0.00 | 97 | 1012.2 |
| 20260903043655 | 47 | 177 | 0.0 | 0.9 | 0.00 | 0.00 | 0.00 | 97 | 1012.5 |
| 20260903043132 | 48 | 87 | 0.0 | 0.9 | 0.00 | 0.00 | 0.00 | 97 | 1012.8 |
| 20260903042603 | 48 | 337 | 0.0 | 0.0 | 0.00 | 0.00 | 0.00 | 97 | 1012.9 |
| 20260903042307 | 48 | 337 | 0.0 | 0.0 | 0.00 | 0.00 | 0.00 | 97 | 1013.0 |
| 20260903041516 | 48 | 337 | 0.0 | 0.0 | 0.00 | 0.00 | 0.00 | 96 | 1013.0 |
| 20260903040953 | 48 | 337 | 0.0 | 0.0 | 0.00 | 0.00 | 0.00 | 97 | 1013.1 |
| 20260903040450 | 48 | 337 | 0.0 | 0.0 | 0.00 | 0.00 | 0.00 | 97 | 1013.2 |
| 20260903040204 | 49 | 337 | 0.0 | 0.0 | 0.00 | 0.00 | 0.00 | 97 | 1013.2 |
| 20260903035432 | 49 | 337 | 0.0 | 0.0 | 0.00 | 0.00 | 0.00 | 97 | 1013.2 |
| 20260903034908 | 49 | 337 | 0.0 | 0.0 | 0.00 | 0.00 | 0.00 | 97 | 1013.3 |
| 20260903034348 | 49 | 337 | 0.0 | 0.9 | 0.00 | 0.00 | 0.00 | 97 | 1013.5 |
| 20260903033822 | 49 | 337 | 0.0 | 0.9 | 0.00 | 0.00 | 0.00 | 96 | 1013.5 |
| 20260903033253 | 49 | 337 | 0.0 | 0.0 | 0.00 | 0.00 | 0.00 | 96 | 1013.7 |
| 20260903032727 | 49 | 337 | 0.0 | 0.0 | 0.00 | 0.00 | 0.00 | 96 | 1013.7 |
| 20260903032217 | 49 | 337 | 0.0 | 0.0 | 0.00 | 0.00 | 0.00 | 96 | 1013.8 |
| 20260903031717 | 49 | 337 | 0.0 | 1.7 | 0.00 | 0.00 | 0.00 | 96 | 1013.9 |
| 20260903031216 | 49 | 337 | 0.0 | 1.7 | 0.00 | 0.00 | 0.00 | 96 | 1014.0 |
| 20260903030721 | 50 | 337 | 0.0 | 0.0 | 0.00 | 0.00 | 0.00 | 96 | 1014.0 |
| 20260903030155 | 50 | 337 | 0.0 | 0.0 | 0.00 | 0.00 | 0.00 | 96 | 1013.9 |
| 20260903025643 | 50 | 337 | 0.0 | 0.9 | 0.00 | 0.00 | 0.00 | 97 | 1014.1 |
| 20260903025140 | 50 | 337 | 0.0 | 0.9 | 0.00 | 0.00 | 0.00 | 96 | 1014.0 |
| 20260903024638 | 50 | 337 | 0.0 | 0.9 | 0.00 | 0.00 | 0.00 | 96 | 1014.2 |
| 20260903024131 | 50 | 337 | 0.0 | 0.0 | 0.00 | 0.00 | 0.00 | 96 | 1014.2 |
| 20260903023834 | 50 | 337 | 0.0 | 0.0 | 0.00 | 0.00 | 0.00 | 96 | 1014.3 |
| 20260903023036 | 50 | 337 | 0.0 | 0.0 | 0.00 | 0.00 | 0.00 | 96 | 1014.4 |
| 20260903022508 | 51 | 337 | 0.0 | 0.0 | 0.00 | 0.00 | 0.00 | 96 | 1014.3 |
| 20260903021949 | 51 | 337 | 0.0 | 0.0 | 0.00 | 0.00 | 0.00 | 96 | 1014.3 |
| 20260903021449 | 51 | 337 | 0.0 | 0.0 | 0.00 | 0.00 | 0.00 | 96 | 1014.5 |
| 20260903020955 | 51 | 337 | 0.0 | 0.0 | 0.00 | 0.00 | 0.00 | 96 | 1014.6 |
| 20260903020947 | 51 | 337 | 0.0 | 0.0 | 0.00 | 0.00 | 0.00 | 96 | 1014.5 |
| 20260903020201 | 51 | 337 | 0.0 | 0.0 | 0.00 | 0.00 | 0.00 | 96 | 1014.6 |
| 20260903020039 | 51 | 337 | 0.0 | 0.0 | 0.00 | 0.00 | 0.00 | 96 | 1014.7 |
| 20260903014929 | 51 | 337 | 0.0 | 0.0 | 0.00 | 0.00 | 0.00 | 96 | 1014.9 |
| 20260903014426 | 51 | 337 | 0.0 | 0.0 | 0.00 | 0.00 | 0.00 | 95 | 1014.9 |
| 20260903013924 | 51 | 337 | 0.0 | 0.0 | 0.00 | 0.00 | 0.00 | 96 | 1014.8 |
| 20260903013357 | 52 | 337 | 0.0 | 0.0 | 0.00 | 0.00 | 0.00 | 96 | 1014.8 |
| 20260903012850 | 52 | 337 | 0.0 | 0.0 | 0.00 | 0.00 | 0.00 | 96 | 1015.0 |
| 20260903012349 | 52 | 337 | 0.0 | 0.0 | 0.00 | 0.00 | 0.00 | 95 | 1014.9 |
| 20260903011844 | 52 | 337 | 0.0 | 0.0 | 0.00 | 0.00 | 0.00 | 95 | 1014.8 |
| 20260903011344 | 53 | 337 | 0.0 | 0.0 | 0.00 | 0.00 | 0.00 | 96 | 1014.9 |
| 20260903010844 | 53 | 337 | 0.0 | 0.0 | 0.00 | 0.00 | 0.00 | 96 | 1014.9 |
| 20260903010614 | 53 | 337 | 0.0 | 0.0 | 0.00 | 0.00 | 0.00 | 96 | 1015.0 |
| 20260903010116 | 53 | 337 | 0.0 | 0.0 | 0.00 | 0.00 | 0.00 | 95 | 1015.0 |
| 20260903005339 | 53 | 337 | 0.0 | 0.0 | 0.00 | 0.00 | 0.00 | 95 | 1015.1 |
| 20260903005109 | 53 | 337 | 0.0 | 0.0 | 0.00 | 0.00 | 0.00 | 95 | 1015.1 |
| 20260903004315 | 53 | 337 | 0.0 | 0.0 | 0.00 | 0.00 | 0.00 | 95 | 1015.1 |
| 20260903003753 | 53 | 337 | 0.0 | 0.0 | 0.00 | 0.00 | 0.00 | 95 | 1015.2 |
| 20260903003526 | 53 | 337 | 0.0 | 0.0 | 0.00 | 0.00 | 0.00 | 94 | 1015.0 |
| 20260903002752 | 53 | 337 | 0.0 | 0.0 | 0.00 | 0.00 | 0.00 | 94 | 1015.0 |
| 20260903002252 | 54 | 337 | 0.0 | 0.0 | 0.00 | 0.00 | 0.00 | 94 | 1015.1 |
| 20260903001721 | 54 | 337 | 0.0 | 1.7 | 0.00 | 0.00 | 0.00 | 94 | 1015.1 |
| 20260903001157 | 54 | 337 | 0.0 | 1.7 | 0.00 | 0.00 | 0.00 | 94 | 1015.1 |
| 20260903000651 | 54 | 337 | 0.0 | 0.0 | 0.00 | 0.00 | 0.00 | 94 | 1015.1 |
| 20260903000146 | 54 | 337 | 0.0 | 0.0 | 0.00 | 0.00 | 0.00 | 93 | 1015.1 |
| 20260902235642 | 55 | 337 | 0.0 | 0.0 | 0.00 | 0.00 | 0.00 | 93 | 1015.1 |
| 20260902235114 | 55 | 337 | 0.0 | 1.7 | 0.00 | 0.00 | 0.00 | 93 | 1015.1 |
| 20260902234613 | 55 | 337 | 0.0 | 1.7 | 0.00 | 0.00 | 0.00 | 92 | 1015.1 |
| 20260902234346 | 55 | 337 | 0.0 | 1.7 | 0.00 | 0.00 | 0.00 | 93 | 1015.3 |
| 20260902233611 | 56 | 279 | 0.0 | 0.0 | 0.00 | 0.00 | 0.00 | 92 | 1015.2 |
| 20260902233112 | 56 | 279 | 0.0 | 0.0 | 0.00 | 0.00 | 0.00 | 93 | 1015.2 |
| 20260902232549 | 56 | 279 | 0.0 | 0.0 | 0.00 | 0.00 | 0.00 | 92 | 1015.2 |
| 20260902232030 | 56 | 279 | 0.0 | 0.0 | 0.00 | 0.00 | 0.00 | 92 | 1015.2 |
| 20260902231527 | 56 | 279 | 0.0 | 0.0 | 0.00 | 0.00 | 0.00 | 91 | 1015.2 |
| 20260902231027 | 57 | 279 | 0.0 | 0.0 | 0.00 | 0.00 | 0.00 | 92 | 1015.2 |
| 20260902230526 | 57 | 279 | 0.0 | 0.0 | 0.00 | 0.00 | 0.00 | 92 | 1015.2 |
| 20260902230026 | 57 | 279 | 0.0 | 0.0 | 0.00 | 0.00 | 0.00 | 92 | 1015.1 |
| 20260902225523 | 57 | 279 | 0.0 | 0.0 | 0.00 | 0.00 | 0.00 | 92 | 1015.1 |
| 20260902225005 | 58 | 279 | 0.0 | 1.7 | 0.00 | 0.00 | 0.00 | 92 | 1015.1 |
| 20260902224705 | 58 | 279 | 0.9 | 1.7 | 0.00 | 0.00 | 0.00 | 92 | 1015.0 |
| 20260902223906 | 58 | 279 | 0.0 | 1.7 | 0.00 | 0.00 | 0.00 | 91 | 1015.0 |
| 20260902223620 | 58 | 279 | 0.0 | 1.7 | 0.00 | 0.00 | 0.00 | 90 | 1014.9 |
| 20260902222849 | 59 | 279 | 0.9 | 1.7 | 0.00 | 0.00 | 0.00 | 91 | 1014.8 |
| 20260902222345 | 59 | 279 | 0.9 | 1.7 | 0.00 | 0.00 | 0.00 | 92 | 1014.8 |
| 20260902222116 | 59 | 279 | 0.9 | 1.7 | 0.00 | 0.00 | 0.00 | 91 | 1014.8 |
| 20260902221341 | 60 | 279 | 0.0 | 1.7 | 0.00 | 0.00 | 0.00 | 90 | 1014.7 |
| 20260902220843 | 60 | 279 | 0.9 | 1.7 | 0.00 | 0.00 | 0.00 | 90 | 1014.8 |
| 20260902220318 | 60 | 279 | 0.0 | 1.7 | 0.00 | 0.00 | 0.00 | 89 | 1015.0 |
| 20260902215756 | 61 | 279 | 0.0 | 0.0 | 0.00 | 0.00 | 0.00 | 88 | 1015.0 |
| 20260902215232 | 61 | 279 | 0.0 | 0.0 | 0.00 | 0.00 | 0.00 | 87 | 1015.0 |
| 20260902214707 | 61 | 279 | 0.0 | 0.0 | 0.00 | 0.00 | 0.00 | 85 | 1014.9 |
| 20260902214207 | 62 | 279 | 0.0 | 0.0 | 0.00 | 0.00 | 0.00 | 85 | 1014.9 |
| 20260902213641 | 62 | 279 | 0.0 | 0.9 | 0.00 | 0.00 | 0.00 | 85 | 1015.0 |
| 20260902213347 | 63 | 279 | 0.0 | 0.9 | 0.00 | 0.00 | 0.00 | 85 | 1014.9 |
| 20260902212615 | 63 | 279 | 0.0 | 0.9 | 0.00 | 0.00 | 0.00 | 84 | 1014.9 |
| 20260902212115 | 64 | 279 | 0.0 | 1.7 | 0.00 | 0.00 | 0.00 | 83 | 1015.0 |
| 20260902211612 | 64 | 279 | 0.0 | 1.7 | 0.00 | 0.00 | 0.00 | 83 | 1015.1 |
| 20260902211113 | 65 | 279 | 0.0 | 0.9 | 0.00 | 0.00 | 0.00 | 82 | 1015.2 |
| 20260902210549 | 65 | 279 | 0.9 | 2.6 | 0.00 | 0.00 | 0.00 | 81 | 1015.2 |
| 20260902210037 | 66 | 279 | 1.7 | 2.6 | 0.00 | 0.00 | 0.00 | 80 | 1015.2 |
| 20260902205537 | 67 | 272 | 1.7 | 2.6 | 0.00 | 0.00 | 0.00 | 78 | 1015.2 |
| 20260902205042 | 68 | 285 | 1.7 | 2.6 | 0.00 | 0.00 | 0.00 | 77 | 1015.3 |
| 20260902204513 | 70 | 285 | 1.7 | 2.6 | 0.00 | 0.00 | 0.00 | 74 | 1015.2 |
| 20260902204212 | 72 | 275 | 0.9 | 1.7 | 0.00 | 0.00 | 0.00 | 72 | 1015.2 |
| 20260902203418 | 73 | 299 | 0.9 | 2.6 | 0.00 | 0.00 | 0.00 | 69 | 1015.3 |
| 20260902202854 | 74 | 299 | 0.9 | 2.6 | 0.00 | 0.00 | 0.00 | 66 | 1015.2 |
| 20260902202347 | 75 | 317 | 0.9 | 2.6 | 0.00 | 0.00 | 0.00 | 65 | 1015.3 |
| 20260902201824 | 76 | 329 | 0.9 | 2.6 | 0.00 | 0.00 | 0.00 | 65 | 1015.3 |
| 20260902201259 | 76 | 136 | 0.0 | 0.0 | 0.00 | 0.00 | 0.00 | 64 | 1015.3 |
| 20260902200749 | 76 | 136 | 0.0 | 1.7 | 0.00 | 0.00 | 0.00 | 63 | 1015.2 |
| 20260902200224 | 75 | 136 | 0.0 | 1.7 | 0.00 | 0.00 | 0.00 | 67 | 1015.2 |
| 20260902195713 | 75 | 136 | 0.0 | 1.7 | 0.00 | 0.00 | 0.00 | 60 | 1015.3 |
| 20260902195215 | 75 | 187 | 0.0 | 1.7 | 0.00 | 0.00 | 0.00 | 61 | 1015.4 |
| 20260902194710 | 75 | 128 | 0.0 | 1.7 | 0.00 | 0.00 | 0.00 | 60 | 1015.5 |
| 20260902194209 | 75 | 270 | 0.0 | 1.7 | 0.00 | 0.00 | 0.00 | 60 | 1015.5 |
| 20260902194146 | 75 | 203 | 0.9 | 2.6 | 0.00 | 0.00 | 0.00 | 61 | 1015.6 |
| 20260902193345 | 75 | 150 | 0.9 | 4.3 | 0.00 | 0.00 | 0.00 | 61 | 1015.7 |
| 20260902192549 | 75 | 208 | 0.9 | 4.3 | 0.00 | 0.00 | 0.00 | 62 | 1015.8 |
| 20260902192543 | 74 | 147 | 0.9 | 2.6 | 0.00 | 0.00 | 0.00 | 64 | 1015.7 |
| 20260902191513 | 75 | 187 | 0.9 | 2.6 | 0.00 | 0.00 | 0.00 | 62 | 1015.7 |
| 20260902191225 | 75 | 206 | 1.7 | 5.2 | 0.00 | 0.00 | 0.00 | 63 | 1015.8 |
| 20260902190725 | 75 | 270 | 2.6 | 5.2 | 0.00 | 0.00 | 0.00 | 63 | 1015.7 |
| 20260902185951 | 75 | 243 | 1.7 | 4.3 | 0.00 | 0.00 | 0.00 | 65 | 1015.7 |
| 20260902185452 | 75 | 160 | 0.9 | 3.5 | 0.00 | 0.00 | 0.00 | 65 | 1015.7 |
| 20260902185220 | 75 | 278 | 1.7 | 6.1 | 0.00 | 0.00 | 0.00 | 61 | 1015.7 |
| 20260902184417 | 75 | 35 | 0.9 | 6.1 | 0.00 | 0.00 | 0.00 | 64 | 1015.8 |
| 20260902183917 | 75 | 312 | 1.7 | 3.5 | 0.00 | 0.00 | 0.00 | 65 | 1015.8 |
| 20260902183621 | 75 | 214 | 0.9 | 3.5 | 0.00 | 0.00 | 0.00 | 63 | 1015.9 |
| 20260902182825 | 75 | 243 | 0.0 | 2.6 | 0.00 | 0.00 | 0.00 | 64 | 1016.0 |
| 20260902182307 | 74 | 294 | 0.9 | 3.5 | 0.00 | 0.00 | 0.00 | 70 | 1016.2 |
| 20260902181807 | 74 | 291 | 0.9 | 3.5 | 0.00 | 0.00 | 0.00 | 68 | 1016.1 |
| 20260902181241 | 74 | 285 | 1.7 | 3.5 | 0.00 | 0.00 | 0.00 | 67 | 1016.1 |
| 20260902180731 | 73 | 227 | 1.7 | 3.5 | 0.00 | 0.00 | 0.00 | 67 | 1016.3 |
| 20260902180230 | 73 | 98 | 0.9 | 6.1 | 0.00 | 0.00 | 0.00 | 69 | 1016.3 |
| 20260902175729 | 73 | 102 | 0.9 | 6.1 | 0.00 | 0.00 | 0.00 | 68 | 1016.4 |
| 20260902175209 | 73 | 99 | 1.7 | 4.3 | 0.00 | 0.00 | 0.00 | 69 | 1016.4 |
| 20260902174707 | 73 | 162 | 1.7 | 5.2 | 0.00 | 0.00 | 0.00 | 68 | 1016.5 |
| 20260902174207 | 73 | 187 | 1.7 | 5.2 | 0.00 | 0.00 | 0.00 | 69 | 1016.6 |
| 20260902173936 | 72 | 118 | 1.7 | 4.3 | 0.00 | 0.00 | 0.00 | 70 | 1016.7 |
| 20260902173138 | 72 | 261 | 0.9 | 4.3 | 0.00 | 0.00 | 0.00 | 69 | 1016.8 |
| 20260902172636 | 72 | 160 | 1.7 | 6.1 | 0.00 | 0.00 | 0.00 | 70 | 1016.9 |
| 20260902172136 | 71 | 141 | 2.6 | 6.1 | 0.00 | 0.00 | 0.00 | 71 | 1017.0 |
| 20260902171627 | 71 | 157 | 1.7 | 5.2 | 0.00 | 0.00 | 0.00 | 71 | 1017.0 |
| 20260902171125 | 71 | 149 | 2.6 | 6.1 | 0.00 | 0.00 | 0.00 | 69 | 1017.1 |
| 20260902170843 | 71 | 229 | 1.7 | 6.1 | 0.00 | 0.00 | 0.00 | 73 | 1017.2 |
| 20260902170723 | 71 | 343 | 1.7 | 3.5 | 0.00 | 0.00 | 0.00 | 70 | 1017.2 |
| 20260902165825 | 71 | 285 | 1.7 | 4.3 | 0.00 | 0.00 | 0.00 | 72 | 1017.2 |
| 20260902165053 | 71 | 261 | 1.7 | 6.1 | 0.00 | 0.00 | 0.00 | 74 | 1017.4 |
| 20260902164601 | 71 | 194 | 1.7 | 6.1 | 0.00 | 0.00 | 0.00 | 71 | 1017.5 |
| 20260902164027 | 70 | 277 | 1.7 | 6.1 | 0.00 | 0.00 | 0.00 | 74 | 1017.5 |
| 20260902163505 | 70 | 242 | 0.9 | 4.3 | 0.00 | 0.00 | 0.00 | 75 | 1017.6 |
| 20260902162959 | 70 | 108 | 0.9 | 2.6 | 0.00 | 0.00 | 0.00 | 73 | 1017.8 |
| 20260902162443 | 70 | 130 | 1.7 | 3.5 | 0.00 | 0.00 | 0.00 | 74 | 1017.8 |
| 20260902161941 | 70 | 293 | 1.7 | 6.1 | 0.00 | 0.00 | 0.00 | 73 | 1018.0 |
| 20260902161440 | 70 | 248 | 1.7 | 6.1 | 0.00 | 0.00 | 0.00 | 73 | 1018.0 |
| 20260902161132 | 69 | 152 | 2.6 | 6.1 | 0.00 | 0.00 | 0.00 | 74 | 1018.2 |
| 20260902161009 | 69 | 351 | 2.6 | 6.1 | 0.00 | 0.00 | 0.00 | 76 | 1018.1 |
| 20260902155855 | 69 | 303 | 1.7 | 6.1 | 0.00 | 0.00 | 0.00 | 77 | 1018.1 |
| 20260902155324 | 69 | 278 | 1.7 | 4.3 | 0.00 | 0.00 | 0.00 | 78 | 1018.4 |
| 20260902154821 | 69 | 337 | 1.7 | 5.2 | 0.00 | 0.00 | 0.00 | 77 | 1018.3 |
| 20260902154320 | 68 | 271 | 2.6 | 6.1 | 0.00 | 0.00 | 0.00 | 76 | 1018.5 |
| 20260902153750 | 68 | 317 | 2.6 | 7.8 | 0.00 | 0.00 | 0.00 | 79 | 1018.6 |
| 20260902153223 | 68 | 299 | 2.6 | 7.8 | 0.00 | 0.00 | 0.00 | 80 | 1018.7 |
| 20260902152658 | 67 | 313 | 2.6 | 8.7 | 0.00 | 0.00 | 0.00 | 80 | 1018.7 |
| 20260902152427 | 66 | 285 | 3.5 | 8.7 | 0.00 | 0.00 | 0.00 | 79 | 1018.8 |
| 20260902151924 | 66 | 292 | 3.5 | 8.7 | 0.00 | 0.00 | 0.00 | 79 | 1018.9 |
| 20260902151120 | 66 | 289 | 4.3 | 8.7 | 0.00 | 0.00 | 0.00 | 80 | 1018.9 |
| 20260902150821 | 66 | 306 | 3.5 | 7.8 | 0.00 | 0.00 | 0.00 | 81 | 1018.9 |
| 20260902150049 | 65 | 293 | 3.5 | 7.8 | 0.00 | 0.00 | 0.00 | 81 | 1018.9 |
| 20260902145547 | 65 | 304 | 3.5 | 7.8 | 0.00 | 0.00 | 0.00 | 81 | 1019.0 |
| 20260902145019 | 65 | 249 | 2.6 | 8.7 | 0.00 | 0.00 | 0.00 | 82 | 1019.0 |
| 20260902144739 | 64 | 280 | 3.5 | 8.7 | 0.00 | 0.00 | 0.00 | 84 | 1019.1 |
| 20260902144237 | 64 | 258 | 4.3 | 8.7 | 0.00 | 0.00 | 0.00 | 82 | 1019.2 |
| 20260902143438 | 64 | 230 | 4.3 | 7.8 | 0.00 | 0.00 | 0.00 | 81 | 1019.2 |
| 20260902142908 | 64 | 285 | 3.5 | 7.8 | 0.00 | 0.00 | 0.00 | 82 | 1019.2 |
| 20260902142343 | 64 | 247 | 3.5 | 7.8 | 0.00 | 0.00 | 0.00 | 82 | 1019.3 |
| 20260902141819 | 64 | 329 | 3.5 | 7.8 | 0.00 | 0.00 | 0.00 | 81 | 1019.2 |